Location: Krasnoyarskiy Pitomnik
(51.1333°N, 71.6167°E)
Time: 23:26:29
(UTC+00:00)

A-11 Canister half - Pass Details

Date: 14 April 2024
Orbit: 1514 x 1685 km, 47.2° (Epoch: 19 May)

Event Time Altitude Azimuth Distance (km) Brightness Sun altitude
Rises 15:51:25 0° 284° (WNW) 4,844 12.9 -15.1°
Reaches altitude 10° 15:57:08 10° 258° (WSW) 3,890 11.6 -15.8°
Maximum altitude 16:00:41 12° 237° (WSW) 3,710 11.2 -16.3°
Drops below altitude 10° 16:04:16 10° 215° (SW) 3,920 11.1 -16.7°
Sets 16:10:09 0° 189° (S) 4,921 11.3 -17.4°
